Weather observations for the past three days for
Denver - Centennial Airport
Imperial (Metric)
Date Time (mdt) Wind (mph) Vis. (mi.) Weather Sky Cond. Temperature (ºF) Relative Humidity Wind Chill (°F) Heat Index (°F) Pressure Precipitation (in)
Air Dwpt 6 hour altimeter (in) sea level (mb) 1 hr 3 hr 6 hr
Max. Min.
24 07:53 W 8 10.00 A Few Clouds FEW120 FEW150 FEW220 78.1 43 29% 78 30.11 1010.0
24 06:53 W 5 10.00 Mostly Cloudy FEW120 SCT150 BKN200 73 42.1 33% 30.11 1010.3
24 05:53 Calm 10.00 Mostly Cloudy FEW150 BKN200 69.1 39.9 73 62.1 35% 30.1 1010.1
24 04:53 SW 6 10.00 Mostly Cloudy BKN200 69.1 39 33% 30.09 1009.7
24 03:53 Vrbl 3 10.00 Partly Cloudy SCT200 66 41 40% 30.08 1010.0
24 02:53 S 5 10.00 Partly Cloudy FEW150 SCT200 66 44.1 45% 30.09 1010.0
24 01:53 Calm 10.00 A Few Clouds FEW150 68 43 40% 30.1 1010.3
24 00:53 NW 3 10.00 A Few Clouds FEW150 72 44.1 37% 30.11 1010.4
23 23:53 W 6 10.00 Partly Cloudy FEW120 SCT150 71.1 44.1 91.9 69.1 38% 30.12 1010.8
23 22:53 Calm 10.00 Partly Cloudy FEW100 SCT140 77 41 28% 78 30.12 1010.6
23 21:53 Calm 10.00 Mostly Cloudy FEW100 BKN140 79 42.1 27% 78 30.1 1010.1
23 20:53 N 7 10.00 Mostly Cloudy FEW100 SCT140 BKN200 82 41 23% 80 30.08 1009.5
23 19:53 Calm 10.00 Mostly Cloudy FEW110 SCT140 BKN200 90 37 15% 86 30.07 1008.7
23 18:53 Calm 10.00 Mostly Cloudy FEW100 SCT150 BKN200 90 37 15% 86 30.07 1009.0
23 17:53 S 6 10.00 Partly Cloudy FEW100 SCT130 SCT220 91.9 35.1 93.9 88 13% 88 30.07 1009.4
23 16:53 SW 8 10.00 Partly Cloudy SCT100 SCT220 91.9 36 14% 88 30.09 1010.6
23 15:53 S 6 10.00 Partly Cloudy FEW100 SCT200 89.1 36 15% 85 30.1 1011.1
23 14:53 NE 6 10.00 A Few Clouds FEW110 FEW200 91.9 37 14% 88 30.12 1011.4
23 13:53 Vrbl 3 10.00 A Few Clouds FEW100 FEW200 91 36 14% 87 30.14 1011.9
23 12:53 Vrbl 5 10.00 A Few Clouds FEW100 FEW200 90 36 15% 86 30.16 1012.9
23 11:53 N 6 10.00 A Few Clouds FEW100 FEW200 89.1 35.1 89.1 66 15% 85 30.18 1013.6
23 10:53 Calm 10.00 A Few Clouds FEW100 FEW200 86 35.1 16% 83 30.19 1013.9
23 09:53 W 6 10.00 A Few Clouds FEW090 FEW200 84 41 22% 81 30.2 1014.4
23 08:53 SW 9 10.00 A Few Clouds FEW180 80.1 42.1 26% 79 30.21 1014.3
23 07:53 SW 8 10.00 A Few Clouds FEW180 73.9 42.1 32% 30.21 1014.9
23 06:53 SW 10 10.00 A Few Clouds FEW180 69.1 42.1 38% 30.2 1015.1
23 05:53 SW 9 10.00 A Few Clouds FEW160 FEW180 64.9 41 68 60.1 42% 30.2 1014.8
23 04:53 Calm 10.00 A Few Clouds FEW100 60.1 42.1 52% 30.19 1014.6
23 03:53 SE 6 10.00 A Few Clouds FEW100 62.1 42.1 48% 30.18 1014.0
23 02:53 Calm 10.00 A Few Clouds FEW100 63 43 48% 30.19 1014.0
23 01:53 SW 9 10.00 Fair CLR 66.9 43 42% 30.19 1014.2
23 00:53 S 8 10.00 Fair CLR 63 45 52% 30.21 1015.0
22 23:53 SW 7 10.00 A Few Clouds FEW100 64.9 46 82.9 64.9 51% 30.22 1015.8
22 22:53 S 9 10.00 Fair CLR 66.9 46 47% 30.22 1015.7
22 21:53 S 8 10.00 A Few Clouds FEW100 FEW150 70 46.9 44% 30.23 1016.1
22 20:53 S 7 10.00 Mostly Cloudy SCT120 BKN160 BKN220 75 43 32% 77 30.23 1015.9
22 19:53 NW 10 10.00 Partly Cloudy FEW110 SCT150 SCT220 77 41 28% 78 30.23 1016.5
22 18:53 NE 10 G 21 10.00 Mostly Cloudy SCT110 BKN160 BKN200 79 43 28% 78 30.22 1016.1
22 17:53 N 20 10.00 Mostly Cloudy BKN110 BKN160 BKN200 82.9 39 89.1 82 21% 81 30.18 1015.0
22 16:53 N 9 10.00 Mostly Cloudy BKN120 BKN160 87.1 36 16% 84 30.15 1013.8
22 15:53 Calm 10.00 Partly Cloudy SCT100 SCT150 89.1 35.1 15% 85 30.14 1012.9
22 14:53 Vrbl 3 10.00 A Few Clouds FEW100 FEW160 88 37 16% 84 30.15 1013.5
22 13:53 Vrbl 6 10.00 A Few Clouds FEW100 FEW160 86 37.9 18% 83 30.17 1014.1
22 12:53 NW 6 10.00 A Few Clouds FEW100 FEW160 86 39.9 20% 83 30.19 1014.4
22 11:53 Calm 10.00 A Few Clouds FEW080 FEW140 82 39.9 82.9 55.9 22% 80 30.21 1015.1
22 10:53 Calm 10.00 A Few Clouds FEW080 FEW140 81 39 22% 79 30.2 1014.5
22 09:53 N 5 10.00 A Few Clouds FEW080 FEW140 78.1 42.1 28% 78 30.21 1015.0
22 08:53 S 3 10.00 Partly Cloudy FEW140 SCT180 72 48.9 44% 30.21 1015.6
22 07:53 S 8 10.00 Mostly Cloudy SCT160 BKN200 64 48 56% 30.19 1015.4
22 06:53 S 7 10.00 Mostly Cloudy SCT160 BKN200 62.1 48 60% 30.18 1015.0
22 05:53 S 6 10.00 Mostly Cloudy SCT160 BKN220 57 46 66 53.1 67% 30.17 1015.2
22 04:53 S 7 10.00 Partly Cloudy FEW160 SCT220 55 46 72% 30.15 1014.8
22 03:53 S 3 10.00 Partly Cloudy SCT220 57 46.9 69% 30.15 1015.4
22 02:53 S 9 10.00 Partly Cloudy FEW180 SCT220 57 46.9 69% 30.15 1015.5
22 01:53 Calm 10.00 Partly Cloudy FEW160 SCT220 60.1 46.9 62% 30.16 1013.9
22 00:53 SE 8 10.00 Mostly Cloudy FEW120 BKN160 BKN220 64 48 56% 30.14 1013.0
21 23:53 N 10 10.00 Light Rain FEW055 FEW100 BKN120 66 46.9 80.1 66 50% 30.2 1015.5
21 22:53 N 22 G 33 10.00 Mostly Cloudy and Breezy FEW090 BKN120 BKN150 72 55 55% 30.16 1013.9
21 21:53 S 6 10.00 Mostly Cloudy FEW090 BKN120 BKN180 72 55 55% 30.09 1012.1
21 20:53 Calm 10.00 Mostly Cloudy FEW090 SCT140 BKN200 73 54 51% 30.07 1011.5
21 19:53 Calm 10.00 Mostly Cloudy FEW090 SCT150 BKN200 75.9 52 43% 78 30.06 1010.5
21 18:53 S 8 10.00 Mostly Cloudy FEW090 BKN150 BKN200 78.1 51.1 39% 79 30.05 1009.8
21 17:53 S 10 10.00 Partly Cloudy FEW090 FEW140 SCT220 79 48.9 84 64.9 35% 79 30.04 1009.6 0.03
21 16:53 E 10 10.00 A Few Clouds FEW090 FEW150 FEW220 78.1 52 40% 79 30.08 1011.1
21 15:53 Calm 10.00 Mostly Cloudy FEW075 SCT100 BKN150 70 57.9 66% 30.13 1013.8 0.03
21 14:53 W 24 G 44 10.00 Thunderstorm Light Rain and Breezy BKN100CB BKN150 68 53.1 59% 30.16 1015.2
21 13:53 N 10 G 21 10.00 Mostly Cloudy FEW080 SCT150 BKN230 84 48.9 30% 82 30.1 1011.6
21 12:53 Calm 10.00 A Few Clouds FEW080 FEW130 81 51.1 35% 80 30.12 1012.3
21 11:53 Calm 10.00 Partly Cloudy FEW080 SCT130 75 54 77 64 48% 78 30.14 1013.7
21 10:53 Calm 10.00 A Few Clouds FEW080 FEW140 72 55.9 57% 30.15 1014.3
21 09:53 N 3 10.00 Mostly Cloudy BKN140 BKN210 66.9 57 71% 30.15 1014.8
21 08:53 NW 9 10.00 Mostly Cloudy SCT100 BKN140 BKN200 64.9 55.9 73% 30.16 1015.5
Date Time (mdt) Wind (mph) Vis. (mi.) Weather Sky Cond. Air Dwpt Max. Min. Relative Humidity Wind Chill (°F) Heat Index (°F) altimeter (in) sea level (mb) 1 hr 3 hr 6 hr
6 hour
Temperature (ºF) Pressure Precipitation (in)